SPACEBEE-87 (47703 NORAD) Tracking and Keplerian Element Data

This shows tracking and keplerian element data for the satellite.

Feedback or suggestion? Click here.




ElementValue
Catalog47703
NameSPACEBEE-87
Epoch Orbit615
Epoch Day99.76483518
Epoch Year2021
RAAN174.7091
Inclination97.4567
Eccentricity0.0011897
Argument of Perigee148.7213
Mean Anonmoly211.4733
Mean Motion15.21473094
Decay Rate4.03E-05
L11 47703U 21015E 21099.76483518 .00004030 00000-0 18205-3 0 9999
L22 47703 97.4567 174.7091 0011897 148.7213 211.4733 15.21473094 6151

Live tracking and technical data element details for SPACEBEE-87 (NORAD 47703). SPACEBEE-87 can be tracked NOW for your location showing map with azimuth and elevation plus other details from your city location.

Track the satellite on the map from your city or location and see movement details for azimuth, elevation, latitude, longitude, range, height, and movement on the map or in text.







IsCatalogInMostPopularTable: catalog: 47703, numindb: 9
Update: records affected: 1



GetName: 47703 SPACEBEE-87

Hit Count: updated at: Sat, 10 Apr 2021 18:23:49 GMT